Orbital Elements at Epoch 2459200.5 (2020-Dec-17.0) TDB
Reference: JPL 19 (heliocentric ecliptic J2000)
Element | Value | Uncertainty (1-sigma) | Units |
e | .1317816074787578 | 5.7573e-08 | |
a | 2.986798006684626 | 2.683e-08 | au |
q | 2.593192964149377 | 1.7198e-07 | au |
i | 6.015422188951827 | 5.1566e-06 | deg |
node | 72.25677940456974 | 5.6203e-05 | deg |
peri | 151.2042091197838 | 5.8901e-05 | deg |
M | 163.1928304448101 | 1.9542e-05 | deg |
tp | 2458345.815593780658 (2018-Aug-15.31559378) | 9.8046e-05 | TDB |
period | 1885.41607741168 5.16 | 2.5405e-05 6.956e-08 | d yr |
n | .190939286194171 | 2.5728e-09 | deg/d |
Q | 3.380403049219876 | 3.0366e-08 | au |
|
| | Orbit Determination Parameters
Additional Information
|